Flag for Kazakhstan Weather past 2 weeks in Qyzylorda, Kazakhstan

Now
59 °F

Clear.


Feels Like: 60 °F
Forecast: 58 / 88 °F
Wind: 3 mph from East

Location: Kzyl-Orda

Current Time: Sep 17, 2014 at 5:41:26 AM

Latest Report: Sep 17, 2014 at 5:00 AM


Visibility: 10 mi

Pressure: 29.71 "Hg

Humidity: 42%

Dew point: 36 °F

Location of QyzylordaLocation

Historic Weather in Qyzylorda — Graph

°F

Qyzylorda temperature yesterday

Maximum temperature yesterday: 86 °F (at 3:00 PM)
Minimum temperature yesterday: 50 °F (at 6:00 AM)
Average temperature yesterday: 71 °F

Past Weeks' High & Low Weather Summary

 TemperatureHumidityPressure
High88 °F (Sep 8, 4:00 PM)58% (Sep 7, 5:00 AM)30.21 "Hg (Sep 7, 5:00 AM)
Low46 °F (Sep 7, 6:30 AM)9% (Sep 14, 5:00 PM)29.74 "Hg (Sep 6, 1:00 AM)
Average68 °F25%29.99 "Hg
* Reported Sep 2 4:00 AM — Sep 17 4:00 AM, Qyzylorda, Weather by CustomWeather, © 2014

Note: Actual official high and low records may vary slightly from our data, if they occured in-between our weather recording intervals... More about our weather records

Advertising

Qyzylorda weather history for previous 24 hours

 ConditionsComfort  
Time TempWeatherWind HumidityBarometerVisibility
4:00 AM
Sep 17
61 °FClear.3 mph36%29.74 "Hg10 mi
3:00 AM59 °FClear.6 mph42%29.74 "Hg10 mi
2:00 AM59 °FClear.3 mph39%29.77 "Hg10 mi
1:00 AM59 °FClear.3 mph42%29.77 "Hg10 mi
12:00 AM59 °FClear.3 mph42%29.77 "Hg10 mi
11:00 PM
Sep 16
63 °FClear.3 mph39%29.77 "Hg10 mi
10:00 PM66 °FClear.3 mph30%29.80 "Hg10 mi
9:00 PM68 °FClear.3 mph30%29.80 "Hg10 mi
8:00 PM73 °FClear.3 mph29%29.80 "Hg10 mi
7:30 PM79 °FSunny.3 mph21%29.80 "Hg10 mi
7:00 PM82 °FPassing clouds.3 mph16%29.80 "HgN/A
6:30 PM84 °FSunny.1 mph14%29.80 "Hg10 mi
6:00 PM84 °FSunny.1 mph13%29.80 "Hg10 mi
5:30 PM84 °FSunny.1 mph13%29.83 "Hg10 mi
5:00 PM84 °FPassing clouds.3 mph13%29.83 "HgN/A
4:30 PM86 °FSunny.1 mph12%29.83 "Hg10 mi
4:00 PM84 °FSunny.1 mph13%29.83 "Hg10 mi
3:30 PM84 °FSunny.6 mph13%29.83 "Hg10 mi
3:00 PM86 °FPassing clouds.8 mph12%29.83 "HgN/A
2:30 PM84 °FPassing clouds.3 mph14%29.83 "HgN/A
2:00 PM84 °FPassing clouds.6 mph14%29.86 "HgN/A
1:30 PM84 °FPassing clouds.3 mph13%29.86 "HgN/A
1:00 PM82 °FSunny.1 mph15%29.89 "Hg10 mi
12:30 PM81 °FSunny.1 mph17%29.89 "Hg10 mi
12:00 PM79 °FSunny.3 mph20%29.89 "Hg10 mi
11:30 AM77 °FSunny.1 mph22%29.92 "Hg10 mi
11:00 AM73 °FSunny.1 mph23%29.92 "Hg10 mi
10:30 AM72 °FSunny.1 mph23%29.92 "Hg10 mi
10:00 AM68 °FPassing clouds.3 mph24%29.92 "HgN/A
9:30 AM64 °FPassing clouds.3 mph26%29.89 "HgN/A
9:00 AM61 °FSunny.3 mph29%29.89 "Hg10 mi
8:30 AM55 °FSunny.3 mph36%29.89 "Hg10 mi
8:00 AM52 °FSunny.3 mph44%29.89 "Hg10 mi
7:00 AM50 °FClear.3 mph47%29.89 "Hg10 mi
6:00 AM50 °FClear.3 mph50%29.89 "Hg10 mi
5:00 AM52 °FClear.6 mph50%29.89 "Hg10 mi
Weather by CustomWeather, © 2014

See weather overviewHow to use our weather pages